OKEAN-0
1 25860U 99039A 11306.93200012 .00000849 00000-0 13687-3 0 04768
2 25860 097.9036 269.7099 0000575 055.3728 304.7535 14.73911455661095
NOAA-16
1 26536U 00055A 11306.90088857 -.00000063 00000-0 -90308-5 0 04876
2 26536 099.1267 340.1721 0010694 007.3772 352.7550 14.12660782572943
NOAA-17
1 27453U 02032A 11306.84924629 .00000310 00000-0 15163-3 0 04722
2 27453 098.3645 340.0895 0012704 102.2938 257.9655 14.24337846486397
NOAA-18
1 28654U 05018A 11306.82302379 .00000085 00000-0 71685-4 0 09493
2 28654 099.0155 258.4243 0015213 074.8061 285.4796 14.11539543332489
NOAA-19
1 33591U 09005A 11306.85093271 .00000026 00000-0 38768-4 0 01414
2 33591 098.8406 244.7490 0013563 306.9239 053.0697 14.11229789140940
HUBBLE
1 20580U 90037B 11306.10856795 .00002440 00000-0 17053-3 0 8770
2 20580 028.4695 195.3338 0003420 146.9247 213.1679 15.01722135980402
ISS
1 25544U 98067A 11307.39278837 .00028613 00000-0 35472-3 0 3672
2 25544 051.6412 180.0751 0021741 016.7654 139.2415 15.59531792742642
CO-58
1 28895U 05043F 11306.62554495 .00000888 00000-0 19286-3 0 00157
2 28895 097.9423 177.5039 0018391 143.5635 216.6842 14.60260018320449
FALCON
1 30776U 07006E 11306.96415415 .00005767 00000-0 39572-3 0 02113
2 30776 035.4323 222.7922 0002721 242.8913 117.1525 15.05472957255966
MAST
1 31126U 07012K 11306.58335949 .00000715 00000-0 17008-3 0 03020
2 31126 097.8870 325.9323 0095356 099.6716 261.5263 14.53863401241194
CAPE1
1 31130U 07012P 11306.49066991 .00000891 00000-0 21358-3 0 3100
2 31130 097.8918 322.4237 0103134 111.5257 249.6989 14.52541861240717
COMPASS
1 32787U 08021E 11306.43184729 .00003121 00000-0 39072-3 0 01350
2 32787 097.8335 007.5804 0016780 085.6294 274.6859 14.82879499190040
AAUSAT2
1 32788U 08021F 11306.84938129 .00003234 00000-0 40252-3 0 01275
2 32788 097.8333 008.2600 0016551 084.8089 275.5072 14.83103280190125
DO-64
1 32789U 08021G 11306.73860289 .00005850 00000-0 70966-3 0 01412
2 32789 097.8434 009.4470 0016181 082.6999 277.6146 14.83852481190120
CO-66
1 32791U 08021J 11306.68229045 .00002969 00000-0 37540-3 0 01305
2 32791 097.8338 007.7157 0017206 084.3623 275.9574 14.82496617190020
RS-30
1 32953U 08025A 11307.39315240 .00000010 00000-0 00000 0 0 2236
2 32953 082.5000 076.1684 0019724 084.1626 276.1710 12.43016629156382
TACSAT-3
1 35001U 09028A 11307.39507707 .00069152 00000-0 92417-3 0 7489
2 35001 040.4531 043.9542 0014992 164.4926 195.6373 15.56935393138715
PHARMSAT
1 35002U 09028B 11307.38382810 .00050666 00000-0 73668-3 0 6942
2 35002 040.4693 043.2023 0016652 177.6628 182.4320 15.54734080138727
HAWKSAT1
1 35003U 09028C 11276.79285837 .02274821 58283-2 19360-2 0 8114
2 35003 040.4398 174.3672 0011414 274.3918 085.3844 16.13812532134570
CP6
1 35004U 09028D 11247.64656856 .16152067 73217-5 10011-2 0 7842
2 35004 040.4403 342.9642 0002956 038.0069 322.2231 16.41039951130139
METEOR-M
1 35865U 09049A 11307.20474098 .00000019 00000-0 28459-4 0 8648
2 35865 098.6887 000.4064 0002800 006.9218 353.1993 14.21844423110340
RS-38
1 35869U 09049E 11307.18732354 .00000092 00000-0 61313-4 0 8468
2 35869 098.6857 000.4155 0004779 359.3966 000.7210 14.22030233110359
ARISSAT1
1 37772U 98067CK 11307.40947468 .00158859 00000-0 11347-2 0 2795
2 37772 051.6351 177.1363 0004615 057.2722 109.6470 15.72739585 14260
SRMSAT
1 37839U 11058B 11306.33953534 .00000619 00000-0 19019-3 0 205
2 37839 019.9625 298.5106 0018972 233.9594 125.9041 14.11980734 3000
JUGNU
1 37841U 11058D 11306.29726232 .00000264 00000-0 00000-0 0 00197
2 37841 019.9693 299.1858 0011621 210.8240 149.1517 14.10079147002994
